Time,TemperatureF,DewpointF,PressureIn,WindDirection,WindDirectionDegrees,WindSpeedMPH,WindSpeedGustMPH,Humidity,HourlyPrecipIn,Conditions,Clouds,dailyrainin,SoftwareType,DateUTC
2013-08-25 00:12:00,74.0,71.0,29.76,NNW,327,0.0,0.0,90,0.00,,,0.00,,2013-08-25 05:12:00,
2013-08-25 00:23:00,74.0,71.0,29.77,NNE,33,0.0,0.0,90,0.00,,,0.00,,2013-08-25 05:23:00,
2013-08-25 00:42:00,73.0,70.0,29.77,North,11,0.0,0.0,91,0.00,,,0.00,,2013-08-25 05:42:00,
2013-08-25 00:52:00,73.0,71.0,29.78,NNW,341,0.0,0.0,92,0.00,,,0.00,,2013-08-25 05:52:00,
2013-08-25 01:12:00,72.0,70.0,29.78,West,271,0.0,0.0,92,0.00,,,0.00,,2013-08-25 06:12:00,
2013-08-25 01:22:00,71.0,69.0,29.78,SW,228,0.0,0.0,94,0.00,,,0.00,,2013-08-25 06:22:00,
2013-08-25 01:43:00,70.0,68.0,29.78,SW,219,0.0,0.0,94,0.00,,,0.00,,2013-08-25 06:43:00,
2013-08-25 01:52:00,69.0,68.0,29.78,SW,219,0.0,0.0,95,0.00,,,0.00,,2013-08-25 06:52:00,
2013-08-25 02:12:00,68.0,67.0,29.78,WSW,252,0.0,0.0,95,0.00,,,0.00,,2013-08-25 07:12:00,
2013-08-25 02:22:00,70.0,69.0,29.78,NW,319,0.0,0.0,97,0.00,,,0.00,,2013-08-25 07:22:00,
2013-08-25 02:42:00,69.0,68.0,29.79,West,263,0.0,2.0,95,0.00,,,0.00,,2013-08-25 07:42:00,
2013-08-25 02:52:00,68.0,67.0,29.80,SSW,210,0.0,0.0,95,0.00,,,0.00,,2013-08-25 07:52:00,
2013-08-25 03:12:00,67.0,66.0,29.81,SW,218,0.0,0.0,96,0.00,,,0.00,,2013-08-25 08:12:00,
2013-08-25 03:21:00,68.0,67.0,29.82,WSW,243,0.0,0.0,97,0.00,,,0.00,,2013-08-25 08:21:00,
2013-08-25 03:42:00,69.0,68.0,29.82,SW,231,0.0,0.0,98,0.00,,,0.00,,2013-08-25 08:42:00,
2013-08-25 03:52:00,69.0,68.0,29.82,SW,227,0.0,0.0,97,0.00,,,0.00,,2013-08-25 08:52:00,
2013-08-25 04:11:00,70.0,69.0,29.82,West,259,0.0,0.0,98,0.00,,,0.00,,2013-08-25 09:11:00,
2013-08-25 04:22:00,70.0,69.0,29.81,SSW,205,0.0,0.0,97,0.00,,,0.00,,2013-08-25 09:22:00,
2013-08-25 04:44:00,70.0,69.0,29.82,SW,217,0.0,0.0,97,0.00,,,0.00,,2013-08-25 09:44:00,
2013-08-25 04:55:00,69.0,68.0,29.81,SW,217,0.0,0.0,97,0.00,,,0.00,,2013-08-25 09:55:00,
2013-08-25 05:12:00,69.0,68.0,29.82,WSW,239,0.0,0.0,97,0.00,,,0.00,,2013-08-25 10:12:00,
2013-08-25 05:23:00,69.0,68.0,29.82,SW,222,0.0,0.0,97,0.00,,,0.00,,2013-08-25 10:23:00,
2013-08-25 05:42:00,69.0,68.0,29.83,SW,225,0.0,0.0,96,0.00,,,0.00,,2013-08-25 10:42:00,
2013-08-25 05:53:00,68.0,67.0,29.83,SW,219,0.0,0.0,96,0.00,,,0.00,,2013-08-25 10:53:00,
2013-08-25 06:12:00,67.0,66.0,29.84,SW,226,0.0,0.0,97,0.00,,,0.00,,2013-08-25 11:12:00,
2013-08-25 06:22:00,68.0,67.0,29.83,WNW,283,0.0,0.0,97,0.00,,,0.00,,2013-08-25 11:22:00,
2013-08-25 06:42:00,68.0,67.0,29.84,WNW,283,0.0,0.0,97,0.00,,,0.00,,2013-08-25 11:42:00,
2013-08-25 06:52:00,68.0,67.0,29.84,WNW,282,0.0,0.0,95,0.00,,,0.00,,2013-08-25 11:52:00,
2013-08-25 07:12:00,67.0,66.0,29.85,ESE,110,0.0,0.0,95,0.00,,,0.00,,2013-08-25 12:12:00,
2013-08-25 07:22:00,66.0,64.0,29.86,SSE,158,0.0,0.0,94,0.00,,,0.00,,2013-08-25 12:22:00,
2013-08-25 07:43:00,65.0,64.0,29.87,SSE,158,0.0,0.0,95,0.00,,,0.00,,2013-08-25 12:43:00,
2013-08-25 07:52:00,66.0,65.0,29.87,SSE,158,0.0,0.0,96,0.00,,,0.00,,2013-08-25 12:52:00,
2013-08-25 08:12:00,67.0,66.0,29.88,SE,142,0.0,0.0,97,0.00,,,0.00,,2013-08-25 13:12:00,
2013-08-25 08:21:00,70.0,68.0,29.87,SE,131,0.0,4.0,94,0.00,,,0.00,,2013-08-25 13:21:00,
2013-08-25 08:42:00,71.0,68.0,29.88,SSW,197,3.0,6.0,90,0.00,,,0.00,,2013-08-25 13:42:00,
2013-08-25 08:52:00,73.0,69.0,29.88,SSW,207,0.0,3.0,88,0.00,,,0.00,,2013-08-25 13:52:00,
2013-08-25 09:11:00,74.0,70.0,29.88,SW,222,1.0,4.0,87,0.00,,,0.00,,2013-08-25 14:11:00,
2013-08-25 09:25:00,76.0,70.0,29.88,WSW,245,1.0,6.0,82,0.00,,,0.00,,2013-08-25 14:25:00,
2013-08-25 09:52:00,79.0,70.0,29.88,SW,216,2.0,6.0,75,0.00,,,0.00,,2013-08-25 14:52:00,
2013-08-25 10:11:00,81.0,72.0,29.88,WSW,257,0.0,4.0,73,0.00,,,0.00,,2013-08-25 15:11:00,
2013-08-25 10:23:00,82.0,70.0,29.88,WNW,282,0.0,3.0,68,0.00,,,0.00,,2013-08-25 15:23:00,
2013-08-25 10:44:00,84.0,71.0,29.88,SW,219,0.0,3.0,66,0.00,,,0.00,,2013-08-25 15:44:00,
2013-08-25 10:54:00,84.0,69.0,29.89,WSW,243,0.0,3.0,61,0.00,,,0.00,,2013-08-25 15:54:00,
2013-08-25 11:13:00,86.0,70.0,29.89,SW,233,1.0,5.0,60,0.00,,,0.00,,2013-08-25 16:13:00,
2013-08-25 11:24:00,86.0,69.0,29.89,West,264,0.0,2.0,58,0.00,,,0.00,,2013-08-25 16:24:00,
2013-08-25 11:44:00,88.0,69.0,29.89,West,271,0.0,0.0,53,0.00,,,0.00,,2013-08-25 16:44:00,
2013-08-25 11:53:00,88.0,68.0,29.89,NW,314,0.0,1.0,52,0.00,,,0.00,,2013-08-25 16:53:00,
2013-08-25 12:11:00,88.0,69.0,29.89,NW,311,0.0,2.0,54,0.00,,,0.00,,2013-08-25 17:11:00,
2013-08-25 12:22:00,89.0,68.0,29.89,SW,236,0.0,0.0,51,0.00,,,0.00,,2013-08-25 17:22:00,
2013-08-25 12:43:00,90.0,68.0,29.89,SSE,158,0.0,2.0,48,0.00,,,0.00,,2013-08-25 17:43:00,
2013-08-25 12:53:00,90.0,68.0,29.89,East,89,0.0,4.0,49,0.00,,,0.00,,2013-08-25 17:53:00,
2013-08-25 13:12:00,90.0,67.0,29.90,NW,311,0.0,4.0,47,0.00,,,0.00,,2013-08-25 18:12:00,
2013-08-25 13:22:00,91.0,69.0,29.89,SSW,204,1.0,4.0,48,0.00,,,0.00,,2013-08-25 18:22:00,
2013-08-25 13:43:00,92.0,68.0,29.88,NNW,330,0.0,0.0,46,0.00,,,0.00,,2013-08-25 18:43:00,
2013-08-25 13:52:00,92.0,68.0,29.88,WSW,252,0.0,4.0,45,0.00,,,0.00,,2013-08-25 18:52:00,
2013-08-25 14:11:00,93.0,68.0,29.88,South,177,0.0,4.0,45,0.00,,,0.00,,2013-08-25 19:11:00,
2013-08-25 14:22:00,93.0,68.0,29.88,WSW,245,0.0,0.0,45,0.00,,,0.00,,2013-08-25 19:22:00,
2013-08-25 14:42:00,94.0,68.0,29.87,East,91,1.0,4.0,43,0.00,,,0.00,,2013-08-25 19:42:00,
2013-08-25 14:53:00,93.0,68.0,29.87,SSW,211,1.0,4.0,45,0.00,,,0.00,,2013-08-25 19:53:00,
2013-08-25 15:12:00,93.0,68.0,29.87,SE,134,0.0,1.0,44,0.00,,,0.00,,2013-08-25 20:12:00,
2013-08-25 15:23:00,93.0,68.0,29.87,SW,214,1.0,4.0,45,0.00,,,0.00,,2013-08-25 20:23:00,
2013-08-25 15:43:00,93.0,68.0,29.87,SW,226,0.0,1.0,44,0.00,,,0.00,,2013-08-25 20:43:00,
2013-08-25 15:53:00,94.0,68.0,29.87,SW,225,0.0,0.0,43,0.00,,,0.00,,2013-08-25 20:53:00,
2013-08-25 16:12:00,95.0,68.0,29.87,South,191,0.0,1.0,42,0.00,,,0.00,,2013-08-25 21:12:00,
2013-08-25 16:22:00,95.0,68.0,29.88,SSE,155,0.0,4.0,42,0.00,,,0.00,,2013-08-25 21:22:00,
2013-08-25 16:43:00,94.0,66.0,29.87,NW,323,0.0,2.0,40,0.00,,,0.00,,2013-08-25 21:43:00,
2013-08-25 16:54:00,95.0,67.0,29.87,West,281,0.0,3.0,40,0.00,,,0.00,,2013-08-25 21:54:00,
2013-08-25 17:14:00,94.0,67.0,29.87,SSW,195,0.0,0.0,41,0.00,,,0.00,,2013-08-25 22:14:00,
2013-08-25 17:24:00,94.0,68.0,29.88,South,179,0.0,0.0,43,0.00,,,0.00,,2013-08-25 22:24:00,
2013-08-25 17:43:00,95.0,68.0,29.87,SSE,165,0.0,5.0,41,0.00,,,0.00,,2013-08-25 22:43:00,
2013-08-25 17:53:00,94.0,66.0,29.87,SE,132,0.0,1.0,40,0.00,,,0.00,,2013-08-25 22:53:00,
2013-08-25 18:12:00,93.0,68.0,29.88,SE,128,0.0,0.0,45,0.00,,,0.00,,2013-08-25 23:12:00,
2013-08-25 18:23:00,93.0,69.0,29.88,SSE,161,0.0,0.0,46,0.00,,,0.00,,2013-08-25 23:23:00,
2013-08-25 18:43:00,94.0,69.0,29.88,SSE,163,0.0,0.0,44,0.00,,,0.00,,2013-08-25 23:43:00,
2013-08-25 18:53:00,94.0,66.0,29.88,SE,124,0.0,0.0,40,0.00,,,0.00,,2013-08-25 23:53:00,
2013-08-25 19:11:00,94.0,66.0,29.88,ESE,117,0.0,0.0,40,0.00,,,0.00,,2013-08-26 00:11:00,
2013-08-25 19:22:00,94.0,69.0,29.88,SSW,201,0.0,0.0,45,0.00,,,0.00,,2013-08-26 00:22:00,
2013-08-25 19:42:00,92.0,68.0,29.87,SW,217,0.0,0.0,45,0.00,,,0.00,,2013-08-26 00:42:00,
2013-08-25 19:52:00,92.0,67.0,29.87,SSW,203,0.0,0.0,44,0.00,,,0.00,,2013-08-26 00:52:00,
2013-08-25 20:11:00,90.0,68.0,29.88,South,170,0.0,0.0,48,0.00,,,0.00,,2013-08-26 01:11:00,
2013-08-25 20:22:00,87.0,66.0,29.88,North,360,0.0,4.0,50,0.00,,,0.00,,2013-08-26 01:22:00,
2013-08-25 20:42:00,85.0,69.0,29.89,North,351,1.0,7.0,58,0.00,,,0.00,,2013-08-26 01:42:00,
2013-08-25 20:52:00,85.0,69.0,29.89,North,351,1.0,7.0,58,0.00,,,0.00,,2013-08-26 01:52:00,
2013-08-25 21:11:00,84.0,69.0,29.91,ENE,78,0.0,6.0,60,0.00,,,0.00,,2013-08-26 02:11:00,
2013-08-25 21:22:00,81.0,68.0,29.91,ENE,71,0.0,0.0,64,0.00,,,0.00,,2013-08-26 02:22:00,
2013-08-25 21:42:00,81.0,69.0,29.92,North,350,0.0,0.0,66,0.00,,,0.00,,2013-08-26 02:42:00,
2013-08-25 21:52:00,80.0,68.0,29.92,NNE,23,0.0,0.0,68,0.00,,,0.00,,2013-08-26 02:52:00,
2013-08-25 22:11:00,79.0,68.0,29.92,ENE,61,0.0,0.0,70,0.00,,,0.00,,2013-08-26 03:11:00,
2013-08-25 22:22:00,78.0,68.0,29.93,NE,56,0.0,0.0,71,0.00,,,0.00,,2013-08-26 03:22:00,
2013-08-25 22:44:00,78.0,68.0,29.93,North,8,0.0,0.0,71,0.00,,,0.00,,2013-08-26 03:44:00,
2013-08-25 22:56:00,78.0,69.0,29.93,North,11,0.0,0.0,73,0.00,,,0.00,,2013-08-26 03:56:00,
2013-08-25 23:14:00,78.0,69.0,29.94,North,5,0.0,0.0,73,0.00,,,0.00,,2013-08-26 04:14:00,
2013-08-25 23:43:00,76.0,68.0,29.93,North,1,0.0,0.0,76,0.00,,,0.00,,2013-08-26 04:43:00,
2013-08-25 23:53:00,76.0,68.0,29.93,North,11,0.0,0.0,77,0.00,,,0.00,,2013-08-26 04:53:00,